Weather Roundup
Issued by NWS Springfield, MO

Home | Current Version | Previous Version | Text Only | Print | Product List | Glossary On
Versions: 1 2 3 4 5 6 7 8 9 10 11 12 13 14 15 16 17 18 19 20 21 22 23 24 25 26 27 28 29 30 31 32 33 34 35 36 37 38 39 40 41 42 43 44 45 46 47 48 49 50
000
NZUS99 KSGF 281457
HRRSGF

HOURLY WEATHER
NATIONAL WEATHER SERVICE SPRINGFIELD MO
1000 AM CDT THU JUL 28 2016

......SGF CWA......

CITY           SKY/WX    TMP DP  RH WIND       PRES   REMARKS
SPRINGFIELD    MOSUNNY   82  73  74 W5        29.97F
JOPLIN         SUNNY     84  76  76 VRB6      29.98F HX  93
WEST PLAINS    SUNNY     79  72  79 W5        29.99S
ROLLA          SUNNY     81  73  76 NW8       29.95S
BRANSON        MOSUNNY   79  73  83 NW6       30.00F

......SURROUNDING SGF CWA......

CITY           SKY/WX    TMP DP  RH WIND       PRES   REMARKS
CHANUTE        TSTM      73  66  78 N10G32    30.00R VSB 1/4
PARSONS        SUNNY     86  76  71 NW6       29.98F HX  96
COFFEYVILLE    SUNNY     86  75  69 NW7       29.96F HX  95
EMPORIA        MOSUNNY   83  71  67 N8        29.99F
HARRISON AR    MOSUNNY   81  74  79 NW8       29.99F

......KANSAS AND MISSOURI......

CITY           SKY/WX    TMP DP  RH WIND       PRES   REMARKS
KANSAS CTY INT PTSUNNY   80  69  69 N5        29.98F
SEDALIA        SUNNY     84  74  71 NW5       29.96F HX  91
ST JOSEPH      MOSUNNY   78  71  79 N6        29.98F
ST LOUIS       MOSUNNY   86  73  65 NW6       29.91S HX  93
WICHITA        CLOUDY    85  69  58 NE10      29.97F
TOPEKA           N/A     82  71  69 NE8       29.99F
OLATHE         PTSUNNY   80  71  74 NW6       29.98F

......TENNESSEE......

CITY           SKY/WX    TMP DP  RH WIND       PRES   REMARKS
MEMPHIS        CLOUDY    81  75  83 W8        29.95S
NASHVILLE      RAIN      76  74  93 S10       29.93F VSB 1

......ARKANSAS.......

CITY           SKY/WX    TMP DP  RH WIND       PRES   REMARKS
FAYETTEVILLE   MOSUNNY   80  76  87 N6        30.01S
FT SMITH       SUNNY     85  71  63 VRB5      29.96F HX  90
LITTLE ROCK    CLOUDY    85  75  72 W6        29.95F HX  93

......OKLAHOMA.......

CITY           SKY/WX    TMP DP  RH WIND       PRES   REMARKS
TULSA          MOSUNNY   85  75  72 NW5       29.96F HX  93
PONCA CITY     MOSUNNY   86  70  58 NE6       29.97F HX  90
MCALESTER      PTSUNNY   82  74  76 SW6       29.99F
OKLAHOMA CITY  MOSUNNY   83  74  74 N6        30.00F

......IOWA............

CITY           SKY/WX    TMP DP  RH WIND       PRES   REMARKS
DES MOINES     NOT AVBL
QUAD CITIES    SUNNY     83  69  62 W5        29.89F

......ILLINOIS........

CITY           SKY/WX    TMP DP  RH WIND       PRES   REMARKS
QUINCY         NOT AVBL
CHICAGO        CLOUDY    81  70  69 NE8       29.90F



USA.gov is the U.S. government's official web portal to all federal, state and local government web resources and services.